Cloud_Cover
100 100 100 100 100 100 100 100 100 100 98 91 92 25 28 100 100 100 100 76 100 48 100 91 100 100 100 100 100 100 100 90 100 100 100 100 87 44 48 6 29 90 100 37 5
100 100 100 100 100 100 99 100 100 64 100 99 16 16 18 15 53 100 100 100 100 60 6 28 100 100 100 100 100 100 100 100 100 100 95 36 10 12 76 97 100 100 100 94 19
100 100 98 100 100 100 100 100 100 100 23 19 24 3 6 0 4 100 100 100 100 32 88 60 9 100 100 100 100 100 100 100 100 100 90 98 100 98 14 89 41 86 100 100 44
100 100 100 100 100 100 100 95 100 100 25 24 25 10 0 0 0 87 100 100 89 100 100 54 19 88 100 100 100 100 100 100 100 100 100 100 100 74 100 100 100 100 100 78 100
100 100 100 100 100 77 100 78 94 68 75 60 34 19 0 0 0 0 5 100 100 77 100 41 5 27 100 100 100 100 100 100 100 62 100 100 100 100 100 100 100 100 100 97 100
100 100 100 100 100 100 69 100 82 100 78 33 77 5 0 0 0 0 0 1 47 100 100 79 47 10 44 100 100 100 100 100 100 100 99 99 97 100 100 100 100 64 57 93 100
73 100 100 100 100 100 100 52 61 1 27 31 31 0 0 0 0 0 0 0 0 4 69 100 83 6 10 5 6 45 100 100 100 100 100 100 100 100 100 100 98 100 99 16 30
99 26 100 100 100 100 100 100 95 10 7 11 27 0 0 0 0 0 0 0 0 0 0 4 81 100 88 5 5 5 6 98 100 100 100 100 100 100 100 99 99 97 98 100 99
100 32 33 100 100 100 100 100 100 100 58 12 2 0 0 0 0 0 0 0 0 0 0 0 1 8 100 98 17 5 3 0 4 78 100 100 100 100 100 100 100 100 98 100 100
100 100 11 100 100 100 100 100 100 100 100 100 29 0 0 0 0 0 0 0 0 0 0 0 0 6 60 99 100 100 8 3 3 4 3 42 100 100 100 100 100 100 100 100 86
100 100 100 100 100 100 100 100 100 100 100 100 100 100 100 3 0 0 0 0 0 0 0 0 0 0 0 2 22 61 100 100 6 4 0 0 0 21 93 100 100 100 100 100 100
94 100 100 17 81 92 100 100 100 100 100 100 100 100 100 100 100 22 37 19 0 0 0 0 0 0 0 0 0 0 1 26 16 5 4 0 0 0 0 4 51 89 100 80 0
31 93 100 100 90 63 93 93 100 100 100 100 100 100 100 100 100 100 100 100 100 96 29 0 0 2 2 0 0 0 0 0 1 2 4 0 0 0 0 0 0 0 0 1 1
5 100 100 100 100 76 31 58 60 100 100 100 100 100 100 100 100 100 100 100 100 100 100 100 99 7 38 2 0 0 0 0 0 0 0 0 0 0 2 3 4 1 0 0 0
34 10 96 100 100 100 100 66 26 66 99 100 100 100 100 100 100 100 100 100 100 100 100 100 100 100 100 100 81 41 1 1 5 5 0 0 0 0 0 0 3 5 13 4 0
40 5 72 100 100 100 62 26 10 9 80 100 100 100 100 100 100 100 100 100 100 100 100 100 100 100 100 100 100 100 100 100 50 26 78 99 61 4 1 7 33 100 100 99 18
5 6 12 100 100 100 100 100 98 97 84 97 87 99 100 100 97 95 100 100 100 100 100 100 100 100 100 100 100 100 100 100 100 100 97 100 96 88 99 100 81 38 81 13 5
88 5 83 72 100 100 100 100 100 100 100 53 79 100 100 100 100 97 95 100 100 100 100 100 100 100 100 100 100 100 100 100 100 88 63 100 100 99 100 69 96 96 90 5 0
100 11 72 87 100 100 100 100 100 100 100 28 22 64 92 80 100 100 100 100 100 100 100 100 100 100 100 100 100 100 100 100 98 59 28 79 90 100 100 100 88 100 100 30 50
100 89 94 100 89 100 100 100 100 100 100 23 18 24 100 97 100 100 100 100 100 100 100 88 48 33 59 100 100 100 98 99 86 82 44 52 100 100 100 100 100 95 98 97 19
100 100 34 100 100 100 100 100 100 100 100 21 34 48 30 100 98 100 100 100 100 100 100 100 100 100 54 5 41 99 100 100 100 73 98 41 31 100 82 100 100 100 97 100 98
100 100 100 94 100 100 100 100 81 100 88 5 3 0 5 12 98 68 100 89 100 100 100 100 100 100 100 100 100 98 74 100 100 77 85 94 27 100 100 100 100 100 100 97 100
100 100 100 100 100 100 100 100 100 100 100 31 14 9 9 36 32 100 100 90 100 100 77 73 100 100 100 100 100 98 100 100 100 90 98 98 12 100 100 100 100 100 100 98 31
100 100 100 100 100 51 100 100 100 100 100 44 5 5 5 33 38 29 99 100 83 99 23 5 18 86 91 50 91 100 100 100 96 100 89 32 39 100 100 100 79 100 100 100 66
100 100 100 100 100 100 100 100 100 100 100 100 16 19 59 34 84 70 39 68 92 44 68 14 44 17 5 21 7 22 77 98 96 48 85 6 41 17 100 100 100 100 100 100 52
100 100 100 100 100 100 100 100 87 100 100 100 100 94 81 51 28 57 10 70 100 84 100 84 74 61 59 36 95 95 89 12 23 100 86 92 58 91 66 100 100 100 98 90 94
100 100 100 100 100 100 100 100 65 59 72 100 100 98 6 54 55 57 64 70 5 73 100 100 100 96 58 89 99 88 6 41 74 69 100 97 55 99 52 100 100 100 100 100 100